TimeMST,TemperatureF,Dew PointF,Humidity,Sea Level PressureIn,VisibilityMPH,Wind Direction,Wind SpeedMPH,Gust SpeedMPH,PrecipitationIn,Events,Conditions,WindDirDegrees,DateUTC
12:15 AM,17.2,11.5,78,30.29,10.0,WNW,5.8,-,N/A,,Clear,300,2013-12-11 07:15:00
12:35 AM,16.5,11.1,79,30.29,10.0,NW,8.1,-,N/A,,Clear,310,2013-12-11 07:35:00
12:55 AM,16.5,11.7,81,30.28,-9999.0,NW,5.8,-,N/A,,Unknown,310,2013-12-11 07:55:00
1:15 AM,17.6,10.9,75,30.29,10.0,NW,5.8,-,N/A,,Clear,320,2013-12-11 08:15:00
1:35 AM,15.4,10.6,81,30.29,10.0,NW,3.5,-,N/A,,Clear,310,2013-12-11 08:35:00
1:55 AM,15.3,9.9,79,30.29,10.0,North,3.5,-,N/A,,Clear,10,2013-12-11 08:55:00
2:15 AM,16.0,10.6,79,30.29,10.0,NW,4.6,-,N/A,,Clear,320,2013-12-11 09:15:00
2:35 AM,16.9,11.1,78,30.30,-9999.0,NW,3.5,-,N/A,,Unknown,320,2013-12-11 09:35:00
2:55 AM,15.3,10.9,83,30.30,10.0,NNW,4.6,-,N/A,,Clear,340,2013-12-11 09:55:00
3:15 AM,15.4,10.6,81,30.30,10.0,NNW,4.6,-,N/A,,Clear,330,2013-12-11 10:15:00
3:35 AM,14.9,10.4,82,30.31,-9999.0,NNW,4.6,-,N/A,,Unknown,330,2013-12-11 10:35:00
3:55 AM,16.3,10.4,77,30.31,10.0,NNW,5.8,-,N/A,,Unknown,330,2013-12-11 10:55:00
4:15 AM,14.7,10.0,82,30.32,10.0,NW,6.9,-,N/A,,Clear,320,2013-12-11 11:15:00
4:35 AM,14.7,10.0,82,30.32,-9999.0,Calm,Calm,-,N/A,,Unknown,0,2013-12-11 11:35:00
4:55 AM,15.6,9.9,78,30.32,10.0,NW,5.8,-,N/A,,Clear,320,2013-12-11 11:55:00
5:15 AM,14.5,10.4,84,30.33,-9999.0,NW,8.1,-,N/A,,Unknown,320,2013-12-11 12:15:00
5:35 AM,15.8,10.8,80,-9999,-9999.0,North,-9999.0,-,N/A,,Unknown,0,2013-12-11 12:35:00
5:55 AM,14.5,10.2,83,30.36,10.0,NW,6.9,-,N/A,,Unknown,310,2013-12-11 12:55:00
6:15 AM,14.5,10.0,82,30.36,10.0,NW,8.1,-,N/A,,Clear,320,2013-12-11 13:15:00
6:35 AM,15.8,10.6,80,30.36,-9999.0,NW,9.2,-,N/A,,Unknown,320,2013-12-11 13:35:00
6:55 AM,15.4,10.4,80,-9999,-9999.0,North,-9999.0,-,N/A,,Unknown,0,2013-12-11 13:55:00
7:15 AM,14.9,9.5,79,30.40,10.0,Calm,Calm,-,N/A,,Clear,0,2013-12-11 14:15:00
7:35 AM,15.3,9.3,77,30.41,10.0,Calm,Calm,-,N/A,,Clear,0,2013-12-11 14:35:00
7:55 AM,15.6,9.7,77,30.42,10.0,NW,5.8,-,N/A,,Clear,320,2013-12-11 14:55:00
8:15 AM,18.1,13.6,83,30.43,-9999.0,Calm,Calm,-,N/A,,Unknown,0,2013-12-11 15:15:00
8:35 AM,21.0,14.5,76,30.44,10.0,Calm,Calm,-,N/A,,Clear,0,2013-12-11 15:35:00
8:55 AM,23.0,15.1,72,30.44,10.0,Calm,Calm,-,N/A,,Clear,0,2013-12-11 15:55:00
9:15 AM,25.7,15.1,64,30.45,10.0,Calm,Calm,-,N/A,,Clear,0,2013-12-11 16:15:00
9:35 AM,29.1,13.3,52,30.46,10.0,Calm,Calm,-,N/A,,Clear,0,2013-12-11 16:35:00
9:55 AM,30.0,15.1,54,30.46,10.0,WSW,3.5,-,N/A,,Clear,250,2013-12-11 16:55:00
10:15 AM,30.9,11.5,44,30.46,10.0,Calm,Calm,-,N/A,,Clear,0,2013-12-11 17:15:00
10:35 AM,32.0,10.0,40,30.46,10.0,WNW,4.6,-,N/A,,Clear,300,2013-12-11 17:35:00
10:55 AM,32.0,12.9,45,30.46,10.0,NW,6.9,-,N/A,,Clear,310,2013-12-11 17:55:00
11:15 AM,33.3,12.4,42,30.45,10.0,NNW,6.9,-,N/A,,Clear,330,2013-12-11 18:15:00
11:35 AM,34.3,13.1,42,30.44,10.0,NW,4.6,-,N/A,,Clear,320,2013-12-11 18:35:00
11:55 AM,34.9,13.5,41,30.43,10.0,WNW,5.8,-,N/A,,Clear,300,2013-12-11 18:55:00
12:15 PM,36.5,15.3,42,30.43,10.0,North,6.9,-,N/A,,Clear,360,2013-12-11 19:15:00
12:35 PM,37.0,14.2,39,30.42,10.0,North,3.5,-,N/A,,Clear,350,2013-12-11 19:35:00
12:55 PM,38.1,14.5,38,30.42,10.0,NNW,3.5,-,N/A,,Clear,330,2013-12-11 19:55:00
1:15 PM,38.5,15.4,39,30.41,10.0,NNE,5.8,-,N/A,,Clear,20,2013-12-11 20:15:00
1:55 PM,40.5,15.1,36,-9999,-9999.0,North,-9999.0,-,N/A,,Unknown,0,2013-12-11 20:55:00
2:15 PM,40.8,15.1,35,30.41,10.0,Calm,Calm,-,N/A,,Clear,0,2013-12-11 21:15:00
2:35 PM,40.8,15.1,35,30.41,10.0,North,3.5,-,N/A,,Clear,350,2013-12-11 21:35:00
2:55 PM,40.5,15.3,36,30.41,10.0,North,3.5,-,N/A,,Clear,10,2013-12-11 21:55:00
3:15 PM,41.2,14.4,34,30.41,10.0,North,3.5,-,N/A,,Clear,360,2013-12-11 22:15:00
3:35 PM,40.8,14.2,34,30.42,10.0,Calm,Calm,-,N/A,,Clear,0,2013-12-11 22:35:00
3:55 PM,40.5,14.9,35,30.42,10.0,North,4.6,-,N/A,,Clear,10,2013-12-11 22:55:00
4:15 PM,39.6,14.4,36,30.43,10.0,NNE,5.8,-,N/A,,Clear,20,2013-12-11 23:15:00
4:35 PM,37.4,15.8,41,30.43,10.0,North,3.5,-,N/A,,Clear,10,2013-12-11 23:35:00
4:55 PM,37.4,14.9,40,30.43,10.0,Calm,Calm,-,N/A,,Scattered Clouds,0,2013-12-11 23:55:00
5:15 PM,34.5,16.7,48,30.43,10.0,Calm,Calm,-,N/A,,Scattered Clouds,0,2013-12-12 00:15:00
5:35 PM,36.7,14.0,39,30.44,10.0,North,3.5,-,N/A,,Scattered Clouds,360,2013-12-12 00:35:00
5:55 PM,32.4,16.7,53,30.44,10.0,Calm,Calm,-,N/A,,Clear,0,2013-12-12 00:55:00
6:15 PM,29.1,18.1,64,30.44,10.0,Calm,Calm,-,N/A,,Clear,0,2013-12-12 01:15:00
6:35 PM,30.9,17.6,58,30.44,10.0,Calm,Calm,-,N/A,,Clear,0,2013-12-12 01:35:00
6:55 PM,27.3,18.0,68,30.44,10.0,Calm,Calm,-,N/A,,Clear,0,2013-12-12 01:55:00
7:15 PM,28.6,18.7,66,30.44,10.0,Calm,Calm,-,N/A,,Clear,0,2013-12-12 02:15:00
7:35 PM,27.3,18.3,69,30.45,10.0,Calm,Calm,-,N/A,,Clear,0,2013-12-12 02:35:00
7:55 PM,27.5,18.1,68,30.46,10.0,WSW,4.6,-,N/A,,Clear,250,2013-12-12 02:55:00
8:15 PM,25.2,18.0,74,30.45,10.0,Calm,Calm,-,N/A,,Clear,0,2013-12-12 03:15:00
8:35 PM,26.2,18.5,73,30.46,10.0,Calm,Calm,-,N/A,,Clear,0,2013-12-12 03:35:00
8:55 PM,23.2,18.5,82,30.46,10.0,NE,8.1,-,N/A,,Clear,50,2013-12-12 03:55:00
9:15 PM,26.8,19.4,74,30.47,10.0,NNE,4.6,-,N/A,,Clear,30,2013-12-12 04:15:00
9:35 PM,24.1,19.0,81,30.47,10.0,NE,4.6,-,N/A,,Clear,40,2013-12-12 04:35:00
9:55 PM,26.2,18.7,73,30.48,10.0,NNE,5.8,-,N/A,,Clear,30,2013-12-12 04:55:00
10:15 PM,24.4,19.0,80,30.48,10.0,NNE,5.8,-,N/A,,Clear,20,2013-12-12 05:15:00
10:35 PM,24.4,18.3,78,30.49,10.0,NW,3.5,-,N/A,,Clear,310,2013-12-12 05:35:00
10:55 PM,23.5,18.5,81,30.49,10.0,WNW,6.9,-,N/A,,Clear,300,2013-12-12 05:55:00
11:15 PM,23.2,19.2,85,30.48,10.0,NW,6.9,-,N/A,,Clear,310,2013-12-12 06:15:00
11:35 PM,24.3,18.7,79,30.48,10.0,NW,5.8,-,N/A,,Clear,310,2013-12-12 06:35:00
11:55 PM,23.7,18.5,80,30.48,10.0,NNW,4.6,-,N/A,,Clear,330,2013-12-12 06:55:00